| time (UTC) | temp F | wind direction | speed MPH | gust MPH | rain 1hr in | rain 24hr in | rain mn in | humidity % | barometer mb |
| 20260503024551 | 81 | 191 | 2.0 | 3.0 | 0.00 | 0.00 | 0.00 | 78 | 1017.2 |
| 20260503024049 | 81 | 147 | 2.0 | 4.0 | 0.00 | 0.00 | 0.00 | 78 | 1017.0 |
| 20260503023545 | 81 | 146 | 2.0 | 3.0 | 0.00 | 0.00 | 0.00 | 79 | 1017.3 |
| 20260503023042 | 80 | 172 | 0.0 | 2.0 | 0.00 | 0.00 | 0.00 | 79 | 1017.1 |
| 20260503022537 | 81 | 195 | 2.0 | 2.0 | 0.00 | 0.00 | 0.00 | 78 | 1016.9 |
| 20260503022032 | 81 | 218 | 1.0 | 3.0 | 0.00 | 0.00 | 0.00 | 78 | 1017.0 |
| 20260503021529 | 81 | 122 | 2.0 | 3.0 | 0.00 | 0.00 | 0.00 | 78 | 1016.9 |
| 20260503021026 | 81 | 168 | 2.0 | 3.0 | 0.00 | 0.00 | 0.00 | 77 | 1016.9 |
| 20260503020524 | 81 | 204 | 2.0 | 4.0 | 0.00 | 0.00 | 0.00 | 77 | 1017.0 |
| 20260503020020 | 81 | 200 | 2.0 | 3.0 | 0.00 | 0.00 | 0.00 | 77 | 1016.6 |
| 20260503015517 | 81 | 167 | 2.0 | 3.0 | 0.00 | 0.00 | 0.00 | 77 | 1016.6 |
| 20260503015014 | 81 | 220 | 2.0 | 3.0 | 0.00 | 0.00 | 0.00 | 76 | 1016.4 |
| 20260503014510 | 81 | 204 | 2.0 | 5.0 | 0.00 | 0.00 | 0.00 | 76 | 1016.4 |
| 20260503014008 | 81 | 234 | 2.0 | 3.0 | 0.00 | 0.00 | 0.00 | 76 | 1016.6 |
| 20260503013505 | 81 | 224 | 1.0 | 3.0 | 0.00 | 0.00 | 0.00 | 75 | 1016.3 |
| 20260503013003 | 81 | 214 | 1.0 | 2.0 | 0.00 | 0.00 | 0.00 | 75 | 1016.2 |
| 20260503012501 | 81 | 141 | 1.0 | 2.0 | 0.00 | 0.00 | 0.00 | 74 | 1016.1 |
| 20260503011956 | 81 | 143 | 2.0 | 3.0 | 0.00 | 0.00 | 0.00 | 74 | 1016.2 |
| 20260503011453 | 81 | 191 | 2.0 | 2.0 | 0.00 | 0.00 | 0.00 | 73 | 1016.1 |
| 20260503010950 | 81 | 230 | 1.0 | 3.0 | 0.00 | 0.00 | 0.00 | 73 | 1016.2 |
| 20260503010447 | 81 | 166 | 2.0 | 3.0 | 0.00 | 0.00 | 0.00 | 73 | 1015.9 |
| 20260503005944 | 81 | 150 | 2.0 | 3.0 | 0.00 | 0.00 | 0.00 | 73 | 1015.8 |
| 20260503005442 | 82 | 204 | 0.0 | 2.0 | 0.00 | 0.00 | 0.00 | 73 | 1015.9 |
| 20260503004938 | 82 | 148 | 4.0 | 4.0 | 0.00 | 0.00 | 0.00 | 72 | 1015.5 |
| 20260503004435 | 82 | 169 | 1.0 | 4.0 | 0.00 | 0.00 | 0.00 | 73 | 1015.6 |
| 20260503003932 | 82 | 127 | 2.0 | 5.0 | 0.00 | 0.00 | 0.00 | 72 | 1015.5 |
| 20260503003429 | 82 | 154 | 3.0 | 3.0 | 0.00 | 0.00 | 0.00 | 72 | 1015.5 |
| 20260503002926 | 82 | 162 | 3.0 | 4.0 | 0.00 | 0.00 | 0.00 | 72 | 1015.5 |
| 20260503002423 | 82 | 178 | 2.0 | 2.0 | 0.00 | 0.00 | 0.00 | 73 | 1015.5 |
| 20260503001919 | 82 | 123 | 2.0 | 4.0 | 0.00 | 0.00 | 0.00 | 73 | 1015.7 |
| 20260503001416 | 82 | 201 | 1.0 | 5.0 | 0.00 | 0.00 | 0.00 | 72 | 1015.6 |
| 20260503000914 | 82 | 138 | 3.0 | 5.0 | 0.00 | 0.00 | 0.00 | 72 | 1015.6 |
| 20260503000410 | 82 | 179 | 2.0 | 6.0 | 0.00 | 0.00 | 0.00 | 73 | 1015.5 |
| 20260502235908 | 82 | 175 | 4.0 | 5.0 | 0.00 | 0.00 | 0.00 | 74 | 1015.3 |
| 20260502235405 | 82 | 226 | 1.0 | 5.0 | 0.00 | 0.00 | 0.00 | 76 | 1015.3 |
| 20260502234902 | 82 | 162 | 3.0 | 6.0 | 0.00 | 0.00 | 0.00 | 76 | 1015.2 |
| 20260502234358 | 82 | 234 | 1.0 | 2.0 | 0.00 | 0.00 | 0.00 | 77 | 1015.0 |
| 20260502233855 | 82 | 174 | 3.0 | 4.0 | 0.00 | 0.00 | 0.00 | 76 | 1014.9 |
| 20260502233351 | 82 | 148 | 3.0 | 4.0 | 0.00 | 0.00 | 0.00 | 75 | 1015.1 |
| 20260502232848 | 83 | 180 | 2.0 | 4.0 | 0.00 | 0.00 | 0.00 | 74 | 1014.9 |
| 20260502232345 | 83 | 179 | 2.0 | 4.0 | 0.00 | 0.00 | 0.00 | 73 | 1015.1 |
| 20260502231841 | 83 | 156 | 2.0 | 4.0 | 0.00 | 0.00 | 0.00 | 73 | 1015.2 |
| 20260502231339 | 84 | 218 | 1.0 | 4.0 | 0.00 | 0.00 | 0.00 | 72 | 1014.9 |
| 20260502230837 | 84 | 179 | 2.0 | 5.0 | 0.00 | 0.00 | 0.00 | 71 | 1015.0 |
| 20260502230335 | 84 | 141 | 2.0 | 6.0 | 0.00 | 0.00 | 0.00 | 71 | 1014.8 |
| 20260502225832 | 85 | 192 | 2.0 | 5.0 | 0.00 | 0.00 | 0.00 | 70 | 1014.8 |
| 20260502225328 | 85 | 200 | 2.0 | 3.0 | 0.00 | 0.00 | 0.00 | 70 | 1014.8 |
| 20260502224825 | 85 | 146 | 2.0 | 6.0 | 0.00 | 0.00 | 0.00 | 68 | 1014.6 |
| 20260502224321 | 85 | 215 | 2.0 | 4.0 | 0.00 | 0.00 | 0.00 | 69 | 1014.5 |
| 20260502223819 | 85 | 184 | 2.0 | 6.0 | 0.00 | 0.00 | 0.00 | 69 | 1014.3 |
| 20260502223312 | 86 | 91 | 0.0 | 6.0 | 0.00 | 0.00 | 0.00 | 67 | 1014.7 |
| 20260502222809 | 86 | 185 | 2.0 | 5.0 | 0.00 | 0.00 | 0.00 | 66 | 1014.4 |
| 20260502222306 | 86 | 182 | 3.0 | 7.0 | 0.00 | 0.00 | 0.00 | 67 | 1014.5 |
| 20260502221801 | 86 | 178 | 4.0 | 9.0 | 0.00 | 0.00 | 0.00 | 66 | 1014.4 |
| 20260502221257 | 86 | 178 | 4.0 | 8.0 | 0.00 | 0.00 | 0.00 | 65 | 1014.3 |
| 20260502220754 | 86 | 168 | 3.0 | 8.0 | 0.00 | 0.00 | 0.00 | 66 | 1014.3 |
| 20260502220250 | 86 | 187 | 4.0 | 7.0 | 0.00 | 0.00 | 0.00 | 65 | 1014.3 |
| 20260502215747 | 86 | 185 | 2.0 | 8.0 | 0.00 | 0.00 | 0.00 | 64 | 1014.2 |
| 20260502215245 | 86 | 200 | 4.0 | 6.0 | 0.00 | 0.00 | 0.00 | 66 | 1014.0 |
| 20260502214742 | 86 | 155 | 6.0 | 8.0 | 0.00 | 0.00 | 0.00 | 66 | 1014.1 |
| 20260502214238 | 86 | 140 | 4.0 | 7.0 | 0.00 | 0.00 | 0.00 | 66 | 1014.1 |
| 20260502213736 | 86 | 195 | 3.0 | 3.0 | 0.00 | 0.00 | 0.00 | 67 | 1014.0 |
| 20260502213233 | 86 | 195 | 3.0 | 8.0 | 0.00 | 0.00 | 0.00 | 67 | 1014.0 |
| 20260502212732 | 86 | 169 | 5.0 | 8.0 | 0.00 | 0.00 | 0.00 | 67 | 1014.2 |
| 20260502212229 | 86 | 158 | 5.0 | 7.0 | 0.00 | 0.00 | 0.00 | 68 | 1014.3 |
| 20260502211725 | 86 | 149 | 8.0 | 10.0 | 0.00 | 0.00 | 0.00 | 67 | 1014.1 |
| 20260502211222 | 86 | 170 | 7.0 | 8.0 | 0.00 | 0.00 | 0.00 | 67 | 1014.0 |
| 20260502210719 | 86 | 170 | 7.0 | 8.0 | 0.00 | 0.00 | 0.00 | 67 | 1014.3 |
| 20260502210217 | 86 | 155 | 6.0 | 10.0 | 0.00 | 0.00 | 0.00 | 65 | 1014.0 |
| 20260502205714 | 86 | 169 | 5.0 | 9.0 | 0.00 | 0.00 | 0.00 | 65 | 1014.4 |
| 20260502205210 | 87 | 190 | 3.0 | 11.0 | 0.00 | 0.00 | 0.00 | 64 | 1014.3 |
| 20260502204707 | 87 | 155 | 4.0 | 10.0 | 0.00 | 0.00 | 0.00 | 64 | 1014.1 |
| 20260502204200 | 87 | 174 | 5.0 | 10.0 | 0.00 | 0.00 | 0.00 | 62 | 1014.0 |
| 20260502203656 | 87 | 184 | 6.0 | 10.0 | 0.00 | 0.00 | 0.00 | 64 | 1014.2 |
| 20260502203154 | 87 | 198 | 4.0 | 12.0 | 0.00 | 0.00 | 0.00 | 63 | 1014.0 |
| 20260502202648 | 87 | 196 | 5.0 | 11.0 | 0.00 | 0.00 | 0.00 | 60 | 1014.2 |
| 20260502202141 | 87 | 168 | 7.0 | 12.0 | 0.00 | 0.00 | 0.00 | 59 | 1014.0 |
| 20260502201637 | 87 | 113 | 1.0 | 11.0 | 0.00 | 0.00 | 0.00 | 61 | 1014.2 |
| 20260502201134 | 87 | 214 | 2.0 | 12.0 | 0.00 | 0.00 | 0.00 | 63 | 1014.0 |
| 20260502200629 | 87 | 175 | 4.0 | 10.0 | 0.00 | 0.00 | 0.00 | 59 | 1014.2 |
| 20260502200127 | 88 | 148 | 4.0 | 7.0 | 0.00 | 0.00 | 0.00 | 62 | 1014.3 |
| 20260502195625 | 87 | 207 | 6.0 | 9.0 | 0.00 | 0.00 | 0.00 | 60 | 1014.2 |
| 20260502195120 | 87 | 189 | 4.0 | 10.0 | 0.00 | 0.00 | 0.00 | 62 | 1014.1 |
| 20260502194618 | 86 | 167 | 5.0 | 11.0 | 0.00 | 0.00 | 0.00 | 63 | 1014.4 |
| 20260502194114 | 87 | 213 | 7.0 | 10.0 | 0.00 | 0.00 | 0.00 | 61 | 1014.4 |
| 20260502193611 | 87 | 160 | 4.0 | 10.0 | 0.00 | 0.00 | 0.00 | 61 | 1014.4 |
| 20260502193108 | 88 | 194 | 5.0 | 8.0 | 0.00 | 0.00 | 0.00 | 62 | 1014.1 |
| 20260502192604 | 87 | 179 | 4.0 | 9.0 | 0.00 | 0.00 | 0.00 | 66 | 1014.4 |
| 20260502192102 | 87 | 156 | 9.0 | 10.0 | 0.00 | 0.00 | 0.00 | 64 | 1014.4 |
| 20260502191558 | 88 | 200 | 6.0 | 12.0 | 0.00 | 0.00 | 0.00 | 62 | 1014.5 |
| 20260502191055 | 88 | 187 | 3.0 | 9.0 | 0.00 | 0.00 | 0.00 | 61 | 1014.5 |
| 20260502190553 | 88 | 169 | 4.0 | 10.0 | 0.00 | 0.00 | 0.00 | 62 | 1014.6 |
| 20260502190050 | 89 | 150 | 6.0 | 7.0 | 0.00 | 0.00 | 0.00 | 60 | 1014.5 |
| 20260502185544 | 89 | 185 | 4.0 | 8.0 | 0.00 | 0.00 | 0.00 | 61 | 1014.9 |
| 20260502185042 | 88 | 204 | 2.0 | 7.0 | 0.00 | 0.00 | 0.00 | 63 | 1014.8 |
| 20260502184537 | 88 | 190 | 5.0 | 7.0 | 0.00 | 0.00 | 0.00 | 62 | 1014.9 |
| 20260502184033 | 88 | 174 | 5.0 | 10.0 | 0.00 | 0.00 | 0.00 | 62 | 1015.1 |
| 20260502183530 | 88 | 159 | 10.0 | 11.0 | 0.00 | 0.00 | 0.00 | 60 | 1015.3 |
| 20260502183026 | 88 | 190 | 2.0 | 10.0 | 0.00 | 0.00 | 0.00 | 63 | 1015.2 |
| 20260502182521 | 89 | 223 | 4.0 | 10.0 | 0.00 | 0.00 | 0.00 | 60 | 1015.3 |
| 20260502182017 | 89 | 178 | 3.0 | 6.0 | 0.00 | 0.00 | 0.00 | 61 | 1015.1 |
| 20260502181515 | 89 | 172 | 3.0 | 9.0 | 0.00 | 0.00 | 0.00 | 62 | 1015.5 |
| 20260502181014 | 89 | 176 | 2.0 | 8.0 | 0.00 | 0.00 | 0.00 | 64 | 1015.4 |
| 20260502180511 | 89 | 119 | 7.0 | 11.0 | 0.00 | 0.00 | 0.00 | 60 | 1015.4 |
| 20260502170430 | 86 | 148 | 5.0 | 11.0 | 0.00 | 0.00 | 0.00 | 70 | 1016.1 |
| 20260502163913 | 87 | 146 | 9.0 | 10.0 | 0.00 | 0.00 | 0.00 | 66 | 1016.0 |
| 20260502163409 | 86 | 192 | 3.0 | 5.0 | 0.00 | 0.00 | 0.00 | 69 | 1016.0 |
| 20260502162907 | 86 | 153 | 5.0 | 9.0 | 0.00 | 0.00 | 0.00 | 70 | 1016.2 |
| 20260502162403 | 86 | 186 | 10.0 | 11.0 | 0.00 | 0.00 | 0.00 | 71 | 1016.1 |
| 20260502161900 | 85 | 167 | 4.0 | 7.0 | 0.00 | 0.00 | 0.00 | 73 | 1016.2 |
| 20260502161351 | 85 | 184 | 5.0 | 9.0 | 0.00 | 0.00 | 0.00 | 72 | 1016.3 |
| 20260502160849 | 85 | 222 | 4.0 | 7.0 | 0.00 | 0.00 | 0.00 | 72 | 1016.3 |
| 20260502160348 | 85 | 120 | 4.0 | 10.0 | 0.00 | 0.00 | 0.00 | 71 | 1016.3 |
| 20260502152322 | 84 | 113 | 2.0 | 5.0 | 0.00 | 0.00 | 0.00 | 75 | 1016.2 |
| 20260502151820 | 83 | 136 | 4.0 | 8.0 | 0.00 | 0.00 | 0.00 | 74 | 1016.3 |
| 20260502151317 | 83 | 78 | 4.0 | 7.0 | 0.00 | 0.00 | 0.00 | 75 | 1016.2 |
| 20260502150814 | 83 | 114 | 2.0 | 4.0 | 0.00 | 0.00 | 0.00 | 77 | 1016.2 |
| 20260502150310 | 83 | 149 | 4.0 | 4.0 | 0.00 | 0.00 | 0.00 | 78 | 1016.4 |
| 20260502130659 | 83 | 312 | 1.0 | 2.0 | 0.00 | 0.00 | 0.00 | 75 | 1015.9 |
| 20260502130157 | 82 | 321 | 2.0 | 2.0 | 0.00 | 0.00 | 0.00 | 75 | 1015.8 |
| 20260502123641 | 81 | 285 | 1.0 | 2.0 | 0.00 | 0.00 | 0.00 | 79 | 1015.9 |
| 20260502123139 | 81 | 301 | 1.0 | 1.0 | 0.00 | 0.00 | 0.00 | 78 | 1015.7 |
| 20260502122635 | 81 | 268 | 1.0 | 1.0 | 0.00 | 0.00 | 0.00 | 78 | 1015.6 |
| 20260502122132 | 81 | 319 | 0.0 | 1.0 | 0.00 | 0.00 | 0.00 | 79 | 1015.6 |
| 20260502121630 | 80 | 266 | 0.0 | 1.0 | 0.00 | 0.00 | 0.00 | 80 | 1015.6 |
| 20260502121127 | 80 | 50 | 1.0 | 1.0 | 0.00 | 0.00 | 0.00 | 82 | 1015.4 |
| 20260502120624 | 79 | 284 | 1.0 | 1.0 | 0.00 | 0.00 | 0.00 | 84 | 1015.4 |
| 20260502120121 | 78 | 313 | 0.0 | 1.0 | 0.00 | 0.00 | 0.00 | 86 | 1015.3 |
| 20260502115619 | 77 | 356 | 1.0 | 2.0 | 0.00 | 0.00 | 0.00 | 86 | 1015.1 |
| 20260502115114 | 77 | 13 | 1.0 | 2.0 | 0.00 | 0.00 | 0.00 | 87 | 1015.0 |
| 20260502114611 | 77 | 326 | 2.0 | 2.0 | 0.00 | 0.00 | 0.00 | 86 | 1014.9 |
| 20260502114108 | 76 | 24 | 1.0 | 1.0 | 0.00 | 0.00 | 0.00 | 88 | 1014.8 |
| 20260502113605 | 76 | 281 | 2.0 | 3.0 | 0.00 | 0.00 | 0.00 | 86 | 1014.8 |
| 20260502113104 | 76 | 313 | 1.0 | 2.0 | 0.00 | 0.00 | 0.00 | 87 | 1014.8 |
| 20260502112601 | 76 | 303 | 1.0 | 1.0 | 0.00 | 0.00 | 0.00 | 86 | 1014.7 |
| 20260502112059 | 76 | 285 | 1.0 | 2.0 | 0.00 | 0.00 | 0.00 | 85 | 1014.8 |
| 20260502111556 | 77 | 282 | 1.0 | 2.0 | 0.00 | 0.00 | 0.00 | 84 | 1014.7 |
| 20260502111053 | 75 | 70 | 1.0 | 1.0 | 0.00 | 0.00 | 0.00 | 89 | 1014.6 |
| 20260502110550 | 74 | 305 | 1.0 | 1.0 | 0.00 | 0.00 | 0.00 | 90 | 1014.4 |
| 20260502110048 | 74 | 65 | 2.0 | 2.0 | 0.00 | 0.00 | 0.00 | 90 | 1014.4 |
| 20260502105545 | 74 | 51 | 1.0 | 3.0 | 0.00 | 0.00 | 0.00 | 91 | 1014.4 |
| 20260502105043 | 74 | 136 | 0.0 | 1.0 | 0.00 | 0.00 | 0.00 | 91 | 1014.5 |
| 20260502104539 | 74 | 72 | 1.0 | 1.0 | 0.00 | 0.00 | 0.00 | 91 | 1014.4 |
| 20260502104037 | 74 | 32 | 1.0 | 2.0 | 0.00 | 0.00 | 0.00 | 91 | 1014.5 |
| 20260502103535 | 74 | 54 | 1.0 | 1.0 | 0.00 | 0.00 | 0.00 | 90 | 1014.4 |
| 20260502103033 | 75 | 31 | 1.0 | 2.0 | 0.00 | 0.00 | 0.00 | 89 | 1014.2 |
| 20260502102528 | 76 | 65 | 1.0 | 1.0 | 0.00 | 0.00 | 0.00 | 87 | 1014.1 |
| 20260502102026 | 76 | 352 | 1.0 | 2.0 | 0.00 | 0.00 | 0.00 | 87 | 1014.1 |
| 20260502101523 | 76 | 357 | 1.0 | 1.0 | 0.00 | 0.00 | 0.00 | 88 | 1014.3 |
| 20260502101022 | 75 | 20 | 1.0 | 1.0 | 0.00 | 0.00 | 0.00 | 88 | 1014.1 |
| 20260502100520 | 75 | 21 | 1.0 | 1.0 | 0.00 | 0.00 | 0.00 | 89 | 1014.2 |
| 20260502091454 | 75 | 53 | 0.0 | 1.0 | 0.00 | 0.00 | 0.00 | 89 | 1013.9 |
| 20260502090952 | 75 | 23 | 0.0 | 1.0 | 0.00 | 0.00 | 0.00 | 88 | 1013.7 |
| 20260502090449 | 76 | 347 | 0.0 | 1.0 | 0.00 | 0.00 | 0.00 | 88 | 1013.6 |
| 20260502071343 | 76 | 325 | 1.0 | 2.0 | 0.00 | 0.00 | 0.00 | 88 | 1013.5 |
| 20260502070841 | 76 | 334 | 1.0 | 2.0 | 0.00 | 0.00 | 0.00 | 88 | 1013.6 |
| 20260502070339 | 76 | 328 | 1.0 | 2.0 | 0.00 | 0.00 | 0.00 | 87 | 1013.4 |
| 20260502065838 | 77 | 328 | 1.0 | 2.0 | 0.00 | 0.00 | 0.00 | 87 | 1013.6 |
| 20260502065335 | 77 | 321 | 2.0 | 2.0 | 0.00 | 0.00 | 0.00 | 86 | 1013.5 |
| 20260502064832 | 77 | 311 | 1.0 | 1.0 | 0.00 | 0.00 | 0.00 | 87 | 1013.4 |
| 20260502064331 | 77 | 286 | 1.0 | 2.0 | 0.00 | 0.00 | 0.00 | 88 | 1013.6 |
| 20260502063828 | 76 | 352 | 0.0 | 1.0 | 0.00 | 0.00 | 0.00 | 89 | 1013.2 |
| 20260502063325 | 76 | 23 | 1.0 | 1.0 | 0.00 | 0.00 | 0.00 | 89 | 1013.5 |
| 20260502062822 | 76 | 21 | 1.0 | 1.0 | 0.00 | 0.00 | 0.00 | 89 | 1013.7 |
| 20260502062320 | 76 | 42 | 1.0 | 2.0 | 0.00 | 0.00 | 0.00 | 88 | 1013.6 |
| 20260502061819 | 77 | 73 | 1.0 | 1.0 | 0.00 | 0.00 | 0.00 | 87 | 1013.6 |
| 20260502061316 | 77 | 74 | 1.0 | 1.0 | 0.00 | 0.00 | 0.00 | 86 | 1013.7 |
| 20260502060811 | 77 | 25 | 1.0 | 1.0 | 0.00 | 0.00 | 0.00 | 87 | 1013.6 |
| 20260502060307 | 77 | 48 | 1.0 | 1.0 | 0.00 | 0.00 | 0.00 | 88 | 1013.7 |
| 20260502055805 | 77 | 50 | 1.0 | 1.0 | 0.00 | 0.00 | 0.00 | 88 | 1013.9 |
| 20260502055305 | 76 | 19 | 1.0 | 1.0 | 0.00 | 0.00 | 0.00 | 89 | 1014.0 |
| 20260502054801 | 76 | 300 | 1.0 | 1.0 | 0.00 | 0.00 | 0.00 | 90 | 1014.2 |
| 20260502054259 | 76 | 100 | 1.0 | 1.0 | 0.00 | 0.00 | 0.00 | 90 | 1014.1 |
| 20260502053756 | 76 | 69 | 1.0 | 1.0 | 0.00 | 0.00 | 0.00 | 90 | 1014.2 |
| 20260502053253 | 76 | 71 | 1.0 | 1.0 | 0.00 | 0.00 | 0.00 | 91 | 1014.3 |
| 20260502052751 | 76 | 54 | 0.0 | 1.0 | 0.00 | 0.00 | 0.00 | 90 | 1014.5 |
| 20260502052249 | 76 | 39 | 1.0 | 1.0 | 0.00 | 0.00 | 0.00 | 90 | 1014.4 |
| 20260502051746 | 76 | 80 | 1.0 | 1.0 | 0.00 | 0.00 | 0.00 | 90 | 1014.5 |
| 20260502051245 | 77 | 327 | 0.0 | 1.0 | 0.00 | 0.00 | 0.00 | 89 | 1014.8 |
| 20260502050741 | 77 | 54 | 1.0 | 1.0 | 0.00 | 0.00 | 0.00 | 88 | 1014.7 |
| 20260502050237 | 77 | 10 | 1.0 | 2.0 | 0.00 | 0.00 | 0.00 | 88 | 1014.8 |
| 20260502045734 | 77 | 313 | 1.0 | 1.0 | 0.00 | 0.03 | 0.03 | 88 | 1014.8 |
| 20260502045231 | 77 | 337 | 1.0 | 1.0 | 0.00 | 0.03 | 0.03 | 88 | 1014.6 |
| 20260502044728 | 77 | 342 | 0.0 | 2.0 | 0.00 | 0.03 | 0.03 | 87 | 1014.9 |
| 20260502044224 | 77 | 334 | 1.0 | 1.0 | 0.00 | 0.03 | 0.03 | 87 | 1015.0 |
| 20260502043722 | 77 | 314 | 1.0 | 2.0 | 0.00 | 0.03 | 0.03 | 88 | 1014.8 |
| 20260502043219 | 77 | 317 | 1.0 | 1.0 | 0.00 | 0.03 | 0.03 | 87 | 1015.0 |
| 20260502042718 | 78 | 313 | 1.0 | 1.0 | 0.00 | 0.03 | 0.03 | 87 | 1015.1 |
| 20260502042216 | 78 | 326 | 1.0 | 2.0 | 0.00 | 0.03 | 0.03 | 87 | 1014.9 |
| 20260502041714 | 78 | 331 | 1.0 | 2.0 | 0.00 | 0.03 | 0.03 | 87 | 1015.0 |
| 20260502041211 | 77 | 338 | 1.0 | 2.0 | 0.00 | 0.03 | 0.03 | 87 | 1015.1 |
| 20260502040708 | 78 | 350 | 1.0 | 2.0 | 0.00 | 0.03 | 0.03 | 87 | 1015.0 |
| 20260502040205 | 78 | 341 | 1.0 | 2.0 | 0.00 | 0.03 | 0.03 | 88 | 1015.0 |
| 20260502035701 | 78 | 319 | 1.0 | 2.0 | 0.00 | 0.03 | 0.03 | 88 | 1014.8 |
| 20260502035157 | 77 | 313 | 1.0 | 2.0 | 0.00 | 0.03 | 0.03 | 88 | 1014.9 |
| 20260502034655 | 78 | 353 | 1.0 | 1.0 | 0.00 | 0.03 | 0.03 | 87 | 1014.9 |
| 20260502034153 | 78 | 17 | 1.0 | 1.0 | 0.00 | 0.03 | 0.03 | 86 | 1014.9 |
| 20260502033651 | 78 | 320 | 1.0 | 1.0 | 0.00 | 0.03 | 0.03 | 87 | 1014.8 |
| 20260502033149 | 78 | 339 | 1.0 | 1.0 | 0.00 | 0.03 | 0.03 | 87 | 1014.9 |
| 20260502032644 | 78 | 307 | 1.0 | 1.0 | 0.00 | 0.03 | 0.03 | 88 | 1014.8 |
| 20260502032141 | 78 | 326 | 0.0 | 1.0 | 0.00 | 0.03 | 0.03 | 88 | 1014.8 |
| 20260502031639 | 78 | 4 | 0.0 | 1.0 | 0.00 | 0.03 | 0.03 | 88 | 1014.8 |
| 20260502031137 | 78 | 350 | 0.0 | 0.0 | 0.00 | 0.03 | 0.03 | 88 | 1014.7 |
| 20260502030635 | 78 | 334 | 1.0 | 1.0 | 0.00 | 0.03 | 0.03 | 88 | 1014.9 |
| 20260502030133 | 77 | 356 | 1.0 | 1.0 | 0.00 | 0.03 | 0.03 | 90 | 1014.6 |
| 20260502025630 | 78 | 72 | 0.0 | 1.0 | 0.00 | 0.03 | 0.03 | 90 | 1014.7 |
| 20260502025128 | 78 | 69 | 1.0 | 1.0 | 0.00 | 0.03 | 0.03 | 89 | 1014.8 |